CAPE
407 639 341 408 602 819 1158 1281 1548 1815 2489 3296 3270 3245 3590 4055 3890 3180 2890 2737 1625 965 608 365 565 1715 732 359 284 263 32 0 8
199 623 594 354 598 795 1066 1328 1816 2425 3132 3002 3029 2976 3411 3706 4051 3564 2995 2780 2548 1487 1270 361 1054 1165 699 196 326 82 33 0 10
239 555 670 496 571 770 1013 1280 1567 1957 2311 2967 2788 2771 2934 3055 3240 3448 3241 3103 3211 2468 1799 1473 945 848 365 254 190 61 96 9 7
150 453 806 787 658 709 1060 1152 1365 1789 2156 2444 2701 2706 3320 3116 2923 3007 3396 3342 3438 3033 2585 1627 1121 881 401 302 225 148 188 129 0
9 240 745 962 931 971 1035 1302 1255 1444 1769 2170 2532 3125 3354 2907 2894 2988 3197 3882 3274 2691 2794 1400 1129 751 443 672 218 209 303 189 7
114 443 790 1107 1126 1309 1374 1376 1721 1559 1850 2019 2190 2602 2756 2825 2825 2997 3226 3346 2877 2917 1749 904 468 433 674 713 561 292 345 386 321
195 728 916 1228 1256 1570 1661 2055 2732 2687 1972 2073 2235 2331 2709 3233 2999 2822 2979 2890 1707 1067 815 401 117 286 332 173 447 640 622 349 427
213 851 946 1328 1502 2240 2758 2630 2686 2566 2382 2373 2379 2567 2653 3001 3146 3073 2775 2415 1479 665 446 382 0 93 16 135 490 198 570 374 231
244 960 1052 1418 1698 1936 2359 2377 2566 2647 2642 2501 2637 2798 2872 2983 3274 3069 2810 2241 1201 801 517 186 51 0 0 6 147 0 0 122 309
276 914 1117 1314 1679 1863 2291 2389 2668 2647 2643 2609 2701 2921 2963 3095 3183 2849 2361 1728 1361 787 528 156 98 104 30 79 399 28 0 13 172
296 949 1146 1283 1410 1773 1965 1907 2039 2160 2339 2546 2684 2899 2915 2959 2817 2548 2163 1985 1343 961 339 262 399 479 304 269 409 267 0 0 420
544 1037 1363 1377 1339 1576 1802 1538 1781 1916 2062 2289 2463 2655 2714 2644 2413 2201 1694 1541 1475 1393 775 562 724 749 643 608 716 0 0 0 585
295 814 1029 1181 1094 1365 1348 1319 1474 1778 1914 2244 2473 2615 2652 2549 2247 2207 1897 1691 1709 1467 1184 866 646 755 734 596 1297 0 0 0 670
631 996 1176 1267 1210 1127 1351 1325 1546 1714 1903 2145 2341 2554 2650 2370 2147 2211 2352 1967 1726 1517 1079 987 1020 838 863 1043 469 768 0 0 591
1214 1131 976 910 1408 1750 1743 1782 2053 2280 2385 2544 2670 2714 2558 2084 2028 1777 1869 1799 1326 884 1107 1202 990 1464 1482 1214 1365 201 0 0 8
913 875 864 1007 1544 1943 2141 2347 2390 2625 3092 2726 2676 2128 1731 1874 1913 1423 1222 1148 822 793 1009 1041 1078 1299 1180 1804 1067 7 0 1 1
1199 1337 1213 1245 1447 1878 2344 2389 2450 2750 2147 2234 2377 2121 2087 1644 1363 1497 1154 1048 1131 1199 1114 1033 1687 1391 785 539 776 292 79 0 2
1340 1435 1347 1280 1470 2065 2282 2262 2258 2062 1973 1846 1834 1726 1733 1269 1093 1065 1314 592 180 789 112 208 547 457 273 214 1157 533 200 85 170
1687 1863 1889 1978 2016 2291 2359 2322 2236 2175 1780 1985 1854 1378 1306 1333 1402 1430 1281 731 108 0 0 1 1 1 89 22 6 0 0 0 0
229 934 1363 2183 1949 2067 2069 2156 2130 2056 1995 1768 1597 1448 1375 1172 759 823 894 823 474 151 0 0 0 0 0 0 0 0 0 0 0
CIN
-36 -63 -76 -121 -136 -143 -133 -118 -102 -82 -53 -15 -9 -3 0 0 0 0 0 0 -11 -54 -88 -115 -79 0 -30 -73 -81 -84 -164 0 0
-28 -47 -58 -102 -136 -136 -139 -120 -104 -83 -37 -43 -29 -17 -5 -1 0 0 0 0 0 -21 -32 -93 -39 -37 -41 -104 -56 -130 -151 0 0
-18 -39 -59 -76 -110 -133 -146 -116 -106 -109 -96 -57 -35 -38 -37 -27 -12 -1 0 0 0 -13 -24 -13 -42 -45 -115 -130 -94 -100 -86 -85 -5
-11 -25 -57 -75 -72 -105 -128 -105 -94 -102 -101 -88 -56 -45 -41 -45 -36 -18 -7 -1 -1 -1 0 -28 -28 -33 -90 -107 -133 -67 -24 -36 0
-2 -16 -45 -78 -75 -100 -111 -119 -101 -85 -82 -83 -70 -52 -60 -64 -46 -34 -26 -3 -10 -70 -1 -89 -64 -62 -47 -3 -57 -39 0 -14 -75
-8 -58 -61 -97 -95 -108 -105 -108 -88 -72 -64 -63 -68 -75 -67 -68 -71 -55 -21 -20 -31 -18 -61 -172 -130 -229 -108 -18 -15 -5 -4 -5 -7
-23 -90 -101 -139 -128 -134 -140 -109 -91 -76 -65 -53 -47 -49 -65 -55 -79 -49 -33 -33 -142 -204 -159 -208 -338 -370 -212 -111 -11 -1 0 -6 -6
-15 -86 -127 -157 -151 -140 -141 -132 -127 -126 -92 -80 -60 -63 -68 -57 -29 -32 -48 -75 -191 -306 -281 -275 0 -399 -440 -136 -9 -33 -1 -5 -32
-10 -61 -120 -141 -184 -172 -172 -169 -170 -156 -144 -118 -123 -105 -86 -36 -26 -43 -52 -120 -225 -263 -340 -441 -446 0 0 -289 -78 0 0 -62 -15
-16 -47 -98 -151 -176 -151 -169 -182 -182 -184 -179 -168 -154 -140 -108 -82 -73 -93 -121 -172 -206 -309 -359 -409 -371 -302 -293 -223 -31 -116 -19 -149 -67
-19 -45 -88 -146 -124 -159 -238 -203 -177 -194 -218 -229 -201 -180 -149 -121 -116 -119 -140 -137 -207 -255 -393 -346 -191 -105 -114 -78 -10 -59 0 0 -31
-76 -76 -89 -158 -178 -248 -299 -214 -235 -267 -253 -254 -237 -204 -169 -150 -144 -142 -191 -196 -195 -176 -251 -232 -104 -36 -23 -17 0 -36 0 0 -3
-166 -180 -178 -224 -253 -324 -315 -296 -294 -284 -258 -232 -192 -187 -164 -148 -152 -140 -174 -173 -136 -110 -93 -140 -99 -24 -13 -15 0 0 0 -216 -11
-222 -234 -284 -313 -332 -331 -344 -343 -279 -238 -207 -163 -139 -139 -143 -165 -173 -134 -95 -109 -148 -45 -38 -34 -5 -1 0 -1 -56 -59 0 0 -73
-295 -325 -303 -288 -303 -296 -278 -226 -165 -142 -110 -105 -123 -118 -124 -172 -153 -151 -96 -83 -115 -113 -16 -1 -1 0 0 0 0 -125 0 0 -96
-269 -272 -264 -255 -230 -213 -184 -156 -117 -93 -97 -136 -124 -173 -194 -144 -89 -103 -115 -111 -111 -71 -7 0 0 0 0 0 0 -97 0 0 0
-221 -187 -192 -194 -165 -138 -134 -162 -161 -132 -197 -164 -110 -115 -77 -89 -87 -41 -55 -44 -18 0 0 0 0 0 -14 -22 -13 -40 -161 -6 -28
-120 -124 -103 -103 -96 -68 -100 -138 -144 -167 -165 -150 -112 -94 -56 -56 -63 -59 -19 -45 -69 -5 -67 -7 0 -8 -23 -22 -4 -11 -11 -22 -34
-67 -47 -45 -30 -42 -42 -52 -79 -96 -91 -117 -56 -31 -43 -28 -25 -14 -10 -6 -34 -59 0 0 0 0 0 -18 -155 -26 0 0 0 0
-308 -167 -108 -2 -19 -19 -28 -19 -18 -16 -15 -18 -31 -22 -20 -20 -34 -12 -4 0 -10 -59 0 0 0 0 0 0 0 0 0 0 0
Wind_Speed
19 24 24 25 25 23 23 23 22 21 19 18 18 18 17 15 17 12 12 12 9 9 8 7 7 9 8 8 7 6 6 6 6
16 22 26 25 25 24 23 23 22 21 19 19 19 19 16 16 15 16 12 11 11 8 7 6 7 10 8 8 8 7 8 7 7
17 20 22 25 25 26 24 23 22 22 21 20 18 18 17 15 16 15 14 13 13 13 10 8 8 10 9 10 8 8 9 8 8
16 18 21 23 25 24 23 23 22 22 20 20 19 18 18 17 16 16 15 15 13 10 9 9 9 8 8 9 10 10 10 10 8
11 12 18 20 21 23 24 24 23 22 21 20 20 19 17 17 16 16 17 14 14 15 11 13 12 7 7 7 8 10 12 12 10
7 8 13 17 19 21 23 23 22 22 21 22 20 18 18 18 18 19 17 15 15 13 15 12 12 15 12 10 8 12 13 13 12
10 8 11 16 18 20 20 20 19 19 20 20 20 19 18 17 18 17 15 14 16 15 16 16 13 13 12 10 13 12 13 14 13
11 12 14 18 19 18 17 17 17 17 18 17 17 16 17 17 14 14 14 15 18 16 17 17 14 13 11 10 13 10 14 14 13
15 16 16 18 19 19 20 18 17 16 15 14 13 13 14 13 13 14 15 16 18 18 18 18 13 12 13 14 12 15 11 12 12
17 18 18 19 20 17 16 16 15 14 13 13 13 13 13 14 14 16 16 16 17 18 17 13 12 10 12 17 16 10 14 12 12
16 14 15 16 16 15 14 14 15 14 14 13 13 13 13 14 14 15 15 15 18 18 16 16 12 11 13 16 14 9 11 12 12
12 12 13 14 14 15 16 16 15 15 15 14 14 14 14 14 14 14 14 15 17 17 17 16 14 10 12 15 14 13 16 12 13
10 13 14 16 18 17 17 17 17 16 15 15 15 15 15 14 14 15 16 15 14 12 13 14 12 11 11 13 12 16 18 17 11
10 14 16 19 18 16 17 16 16 15 15 14 13 13 14 14 14 13 11 12 10 10 11 8 10 11 14 10 10 11 15 14 9
17 20 18 19 18 16 14 14 13 14 12 11 11 11 11 10 11 9 10 10 9 9 9 10 10 10 10 11 12 6 11 10 11
18 19 16 15 15 14 12 10 9 10 10 10 11 11 11 10 10 9 9 8 7 7 9 9 8 7 9 9 6 6 8 4 6
15 14 13 13 12 12 10 9 10 11 10 10 10 11 10 9 8 9 9 8 7 7 8 8 8 8 0 1 3 6 7 6 7
13 12 10 8 8 8 9 9 9 9 9 9 9 9 9 10 9 8 7 4 5 4 6 5 3 4 4 5 5 5 4 3 8
8 10 9 6 7 8 8 9 9 9 10 10 11 10 7 7 7 8 7 6 6 12 10 6 4 2 3 4 7 13 14 10 11
8 9 9 5 5 6 7 9 10 10 9 9 9 8 8 7 4 6 6 6 7 8 6 9 10 9 9 11 12 12 10 9 9
Wind_Direction
192 203 201 201 199 201 200 200 201 203 201 206 204 204 207 210 211 215 217 214 231 209 220 205 194 199 202 218 203 207 193 202 231
204 205 205 198 198 201 199 200 199 201 203 204 204 203 204 209 208 218 214 223 202 208 219 212 192 192 203 213 213 210 198 230 202
213 203 206 203 199 198 197 198 200 202 205 206 205 205 204 208 207 206 210 209 203 212 200 219 181 200 194 190 204 222 217 226 211
224 204 203 206 202 201 195 199 200 202 203 205 204 202 204 207 205 201 204 207 204 211 181 183 193 208 208 203 193 218 227 247 261
226 213 204 204 204 198 195 200 199 202 201 203 204 203 201 204 204 203 202 201 198 172 195 161 179 171 224 248 228 223 230 236 239
233 229 204 201 199 192 201 199 201 204 202 203 203 205 200 204 205 205 205 202 184 178 181 162 176 152 192 222 232 235 233 237 240
239 216 203 198 199 192 198 200 197 203 207 206 207 202 205 205 208 207 203 199 172 175 178 165 174 178 176 202 239 230 235 235 235
230 213 197 196 195 189 191 195 195 200 207 204 210 206 210 209 206 206 198 190 190 174 173 179 185 177 178 202 225 219 231 235 233
230 217 201 199 194 192 190 191 191 189 197 200 200 212 210 212 192 197 193 193 190 186 187 189 193 197 198 206 223 219 204 229 229
230 220 201 194 192 192 185 184 183 179 182 185 186 194 198 197 193 197 195 197 199 196 197 205 219 204 203 218 227 210 203 205 239
230 217 193 187 186 176 170 175 173 169 169 175 180 185 190 188 191 194 198 195 204 203 203 203 206 213 221 226 229 186 146 161 223
234 199 190 173 165 162 165 167 156 158 163 169 171 177 183 183 189 195 197 201 204 205 201 208 215 228 234 230 233 169 173 185 223
197 171 178 170 160 154 158 150 153 153 155 162 172 172 179 178 185 191 191 202 203 205 219 209 216 236 227 224 229 182 184 195 220
152 133 148 139 144 142 139 143 146 151 155 164 165 169 171 177 184 191 187 195 172 197 211 211 223 232 230 218 211 201 195 206 216
131 123 136 126 125 125 132 139 147 146 152 145 152 159 160 168 174 185 186 177 153 168 203 212 218 226 228 227 225 217 182 202 244
111 112 118 117 117 117 121 126 135 136 124 141 146 144 160 162 163 180 156 149 161 182 201 231 224 221 231 229 179 136 109 184 210
92 95 102 109 118 121 116 114 115 122 145 147 148 150 155 154 163 172 165 172 178 215 194 211 220 225 177 81 170 184 158 159 157
81 80 74 80 101 108 115 118 115 126 133 146 148 154 165 169 166 173 173 82 17 239 59 8 225 199 212 222 199 182 117 173 179
71 80 70 73 94 115 122 119 121 131 143 162 154 150 166 153 162 163 173 155 147 50 45 45 31 360 325 104 63 104 91 82 78
62 78 77 59 75 100 118 123 121 127 139 147 150 146 144 145 194 167 165 174 189 170 95 77 58 46 49 67 113 105 111 116 122